Time,TemperatureF,DewpointF,PressureIn,WindDirection,WindDirectionDegrees,WindSpeedMPH,WindSpeedGustMPH,Humidity,HourlyPrecipIn,Conditions,Clouds,dailyrainin,SoftwareType,DateUTC
2013-02-03 00:00:00,50.7,47.8,30.19,NE,45,0.0,0.0,90,0.00,,,0.00,meteohub,2013-02-03 05:00:00,
2013-02-03 00:01:00,50.7,47.8,30.19,NE,45,0.0,0.0,90,0.00,,,0.00,meteohub,2013-02-03 05:01:00,
2013-02-03 00:02:00,50.7,47.8,30.19,NE,45,0.0,0.0,90,0.00,,,0.00,meteohub,2013-02-03 05:02:00,
2013-02-03 00:07:00,50.7,47.8,30.19,NE,45,0.0,0.0,90,0.00,,,0.00,meteohub,2013-02-03 05:07:00,
2013-02-03 00:12:00,50.7,47.8,30.19,NE,45,0.0,0.0,90,0.00,,,0.00,meteohub,2013-02-03 05:12:00,
2013-02-03 00:17:00,50.5,47.5,30.18,NE,45,0.0,0.0,89,0.00,,,0.00,meteohub,2013-02-03 05:17:00,
2013-02-03 00:22:00,50.4,47.3,30.18,SW,225,1.0,0.0,89,0.00,,,0.00,meteohub,2013-02-03 05:22:00,
2013-02-03 00:27:00,50.2,47.1,30.18,SW,225,0.0,2.0,89,0.00,,,0.00,meteohub,2013-02-03 05:27:00,
2013-02-03 00:32:00,50.0,46.9,30.18,SW,225,0.0,2.0,89,0.00,,,0.00,meteohub,2013-02-03 05:32:00,
2013-02-03 00:37:00,49.8,46.8,30.19,SW,225,0.0,2.0,89,0.00,,,0.00,meteohub,2013-02-03 05:37:00,
2013-02-03 00:42:00,49.6,46.8,30.19,ESE,113,0.0,0.0,90,0.00,,,0.00,meteohub,2013-02-03 05:42:00,
2013-02-03 00:47:00,49.5,46.6,30.19,SE,135,1.0,0.0,90,0.00,,,0.00,meteohub,2013-02-03 05:47:00,
2013-02-03 00:52:00,49.5,46.6,30.18,SE,135,0.0,1.0,90,0.00,,,0.00,meteohub,2013-02-03 05:52:00,
2013-02-03 00:57:00,49.5,46.9,30.18,SE,135,0.0,1.0,91,0.00,,,0.00,meteohub,2013-02-03 05:57:00,
2013-02-03 01:02:00,49.5,46.9,30.18,SE,135,0.0,1.0,91,0.00,,,0.00,meteohub,2013-02-03 06:02:00,
2013-02-03 01:07:00,49.5,46.9,30.17,SE,135,0.0,0.0,91,0.00,,,0.00,meteohub,2013-02-03 06:07:00,
2013-02-03 01:12:00,49.5,46.9,30.17,SE,135,0.0,0.0,91,0.00,,,0.00,meteohub,2013-02-03 06:12:00,
2013-02-03 01:17:00,49.3,47.1,30.17,SE,135,0.0,0.0,92,0.00,,,0.00,meteohub,2013-02-03 06:17:00,
2013-02-03 01:22:00,49.3,47.1,30.17,ESE,113,0.0,1.0,92,0.00,,,0.00,meteohub,2013-02-03 06:22:00,
2013-02-03 01:27:00,49.3,47.1,30.17,ESE,113,0.0,1.0,92,0.00,,,0.00,meteohub,2013-02-03 06:27:00,
2013-02-03 01:32:00,49.5,47.3,30.18,NE,45,1.0,1.0,92,0.00,,,0.00,meteohub,2013-02-03 06:32:00,
2013-02-03 01:37:00,49.6,47.5,30.17,NE,45,0.0,1.0,92,0.00,,,0.00,meteohub,2013-02-03 06:37:00,
2013-02-03 01:42:00,49.6,47.7,30.17,NE,45,0.0,1.0,93,0.00,,,0.00,meteohub,2013-02-03 06:42:00,
2013-02-03 01:47:00,49.6,47.5,30.17,NE,45,0.0,1.0,92,0.00,,,0.00,meteohub,2013-02-03 06:47:00,
2013-02-03 01:52:00,49.6,47.5,30.17,East,90,3.0,3.0,92,0.00,,,0.00,meteohub,2013-02-03 06:52:00,
2013-02-03 01:57:00,50.0,47.8,30.17,East,90,4.0,4.0,92,0.00,,,0.00,meteohub,2013-02-03 06:57:00,
2013-02-03 02:02:00,50.4,48.2,30.17,SE,135,2.0,4.0,92,0.00,,,0.00,meteohub,2013-02-03 07:02:00,
2013-02-03 02:07:00,50.4,48.2,30.17,SE,135,2.0,4.0,92,0.00,,,0.00,meteohub,2013-02-03 07:07:00,
2013-02-03 02:12:00,51.4,48.0,30.17,East,90,4.0,4.0,88,0.00,,,0.00,meteohub,2013-02-03 07:12:00,
2013-02-03 02:17:00,52.0,47.7,30.17,East,90,7.0,7.0,85,0.00,,,0.00,meteohub,2013-02-03 07:17:00,
2013-02-03 02:22:00,52.3,47.3,30.17,SW,225,4.0,8.0,83,0.00,,,0.00,meteohub,2013-02-03 07:22:00,
2013-02-03 02:27:00,52.5,46.9,30.17,SE,135,4.0,8.0,81,0.00,,,0.00,meteohub,2013-02-03 07:27:00,
2013-02-03 02:32:00,52.7,46.8,30.17,SE,135,3.0,8.0,80,0.00,,,0.00,meteohub,2013-02-03 07:32:00,
2013-02-03 02:37:00,52.7,46.4,30.17,West,270,4.0,6.0,79,0.00,,,0.00,meteohub,2013-02-03 07:37:00,
2013-02-03 02:42:00,52.7,46.0,30.17,NE,45,4.0,6.0,78,0.00,,,0.00,meteohub,2013-02-03 07:42:00,
2013-02-03 02:47:00,52.7,45.7,30.17,NE,45,4.0,8.0,77,0.00,,,0.00,meteohub,2013-02-03 07:47:00,
2013-02-03 02:52:00,52.5,45.1,30.17,East,90,4.0,8.0,76,0.00,,,0.00,meteohub,2013-02-03 07:52:00,
2013-02-03 02:57:00,52.5,44.8,30.16,SE,135,4.0,7.0,75,0.00,,,0.00,meteohub,2013-02-03 07:57:00,
2013-02-03 03:02:00,52.5,44.4,30.16,SE,135,4.0,7.0,74,0.00,,,0.00,meteohub,2013-02-03 08:02:00,
2013-02-03 03:07:00,52.5,44.4,30.16,SE,135,4.0,7.0,74,0.00,,,0.00,meteohub,2013-02-03 08:07:00,
2013-02-03 03:12:00,52.2,43.7,30.16,NE,45,2.0,6.0,73,0.00,,,0.00,meteohub,2013-02-03 08:12:00,
2013-02-03 03:17:00,52.0,43.5,30.16,East,90,4.0,5.0,73,0.00,,,0.00,meteohub,2013-02-03 08:17:00,
2013-02-03 03:22:00,51.8,43.7,30.16,East,90,4.0,5.0,74,0.00,,,0.00,meteohub,2013-02-03 08:22:00,
2013-02-03 03:27:00,51.6,43.5,30.16,East,90,4.0,5.0,74,0.00,,,0.00,meteohub,2013-02-03 08:27:00,
2013-02-03 03:32:00,51.4,43.5,30.16,South,180,2.0,5.0,74,0.00,,,0.00,meteohub,2013-02-03 08:32:00,
2013-02-03 03:37:00,51.4,43.5,30.17,East,90,2.0,5.0,74,0.00,,,0.00,meteohub,2013-02-03 08:37:00,
2013-02-03 03:42:00,51.3,43.3,30.17,East,90,2.0,5.0,74,0.00,,,0.00,meteohub,2013-02-03 08:42:00,
2013-02-03 03:47:00,51.3,43.3,30.17,North,0,2.0,4.0,74,0.00,,,0.00,meteohub,2013-02-03 08:47:00,
2013-02-03 03:52:00,51.1,43.2,30.17,East,90,3.0,4.0,74,0.00,,,0.00,meteohub,2013-02-03 08:52:00,
2013-02-03 03:57:00,51.3,43.3,30.17,SE,135,2.0,4.0,74,0.00,,,0.00,meteohub,2013-02-03 08:57:00,
2013-02-03 04:02:00,51.1,43.2,30.17,East,90,3.0,4.0,74,0.00,,,0.00,meteohub,2013-02-03 09:02:00,
2013-02-03 04:07:00,51.1,43.2,30.17,East,90,2.0,4.0,74,0.00,,,0.00,meteohub,2013-02-03 09:07:00,
2013-02-03 04:12:00,50.9,43.0,30.17,East,90,2.0,4.0,74,0.00,,,0.00,meteohub,2013-02-03 09:12:00,
2013-02-03 04:17:00,50.9,43.0,30.17,SE,135,1.0,3.0,74,0.00,,,0.00,meteohub,2013-02-03 09:17:00,
2013-02-03 04:22:00,50.7,42.8,30.17,East,90,1.0,3.0,74,0.00,,,0.00,meteohub,2013-02-03 09:22:00,
2013-02-03 04:27:00,50.7,43.2,30.17,SE,135,2.0,3.0,75,0.00,,,0.00,meteohub,2013-02-03 09:27:00,
2013-02-03 04:32:00,50.5,43.0,30.17,South,180,2.0,2.0,75,0.00,,,0.00,meteohub,2013-02-03 09:32:00,
2013-02-03 04:37:00,50.5,43.0,30.17,East,90,2.0,2.0,75,0.00,,,0.00,meteohub,2013-02-03 09:37:00,
2013-02-03 04:42:00,50.5,43.0,30.17,East,90,2.0,2.0,75,0.00,,,0.00,meteohub,2013-02-03 09:42:00,
2013-02-03 04:47:00,50.5,43.0,30.17,East,90,2.0,2.0,75,0.00,,,0.00,meteohub,2013-02-03 09:47:00,
2013-02-03 04:52:00,50.5,43.0,30.17,East,90,2.0,2.0,75,0.00,,,0.00,meteohub,2013-02-03 09:52:00,
2013-02-03 04:57:00,50.2,42.6,30.17,SE,135,0.0,2.0,75,0.00,,,0.00,meteohub,2013-02-03 09:57:00,
2013-02-03 05:02:00,50.2,42.6,30.17,SE,135,0.0,2.0,75,0.00,,,0.00,meteohub,2013-02-03 10:02:00,
2013-02-03 05:07:00,50.2,42.6,30.17,SE,135,0.0,2.0,75,0.00,,,0.00,meteohub,2013-02-03 10:07:00,
2013-02-03 05:12:00,49.5,42.3,30.17,SE,135,0.0,0.0,76,0.00,,,0.00,meteohub,2013-02-03 10:12:00,
2013-02-03 05:17:00,49.5,42.3,30.17,SE,135,1.0,0.0,76,0.00,,,0.00,meteohub,2013-02-03 10:17:00,
2013-02-03 05:22:00,49.3,42.1,30.17,East,90,2.0,2.0,76,0.00,,,0.00,meteohub,2013-02-03 10:22:00,
2013-02-03 05:27:00,49.1,42.3,30.17,East,90,0.0,2.0,77,0.00,,,0.00,meteohub,2013-02-03 10:27:00,
2013-02-03 05:32:00,48.9,42.1,30.17,East,90,0.0,2.0,77,0.00,,,0.00,meteohub,2013-02-03 10:32:00,
2013-02-03 05:37:00,48.6,41.7,30.17,East,90,0.0,2.0,77,0.00,,,0.00,meteohub,2013-02-03 10:37:00,
2013-02-03 05:42:00,48.4,41.9,30.18,East,90,0.0,1.0,78,0.00,,,0.00,meteohub,2013-02-03 10:42:00,
2013-02-03 05:47:00,48.2,42.1,30.18,East,90,0.0,1.0,79,0.00,,,0.00,meteohub,2013-02-03 10:47:00,
2013-02-03 05:52:00,47.8,41.9,30.18,East,90,0.0,1.0,80,0.00,,,0.00,meteohub,2013-02-03 10:52:00,
2013-02-03 05:57:00,47.7,42.1,30.18,East,90,0.0,0.0,81,0.00,,,0.00,meteohub,2013-02-03 10:57:00,
2013-02-03 06:02:00,47.5,42.3,30.19,East,90,0.0,1.0,82,0.00,,,0.00,meteohub,2013-02-03 11:02:00,
2013-02-03 06:07:00,46.9,42.1,30.19,East,90,0.0,1.0,83,0.00,,,0.00,meteohub,2013-02-03 11:07:00,
2013-02-03 06:12:00,46.6,41.7,30.19,East,90,0.0,1.0,83,0.00,,,0.00,meteohub,2013-02-03 11:12:00,
2013-02-03 06:17:00,46.4,41.9,30.19,East,90,0.0,0.0,84,0.00,,,0.00,meteohub,2013-02-03 11:17:00,
2013-02-03 06:23:00,46.4,41.9,30.19,East,90,0.0,0.0,84,0.00,,,0.00,meteohub,2013-02-03 11:23:00,
2013-02-03 06:28:00,46.2,41.7,30.19,East,90,0.0,0.0,84,0.00,,,0.00,meteohub,2013-02-03 11:28:00,
2013-02-03 06:33:00,46.4,42.1,30.19,NE,45,0.0,0.0,85,0.00,,,0.00,meteohub,2013-02-03 11:33:00,
2013-02-03 06:38:00,46.6,43.5,30.20,North,0,0.0,0.0,89,0.00,,,0.00,meteohub,2013-02-03 11:38:00,
2013-02-03 06:43:00,46.6,43.5,30.20,NE,45,2.0,3.0,89,0.00,,,0.00,meteohub,2013-02-03 11:43:00,
2013-02-03 06:48:00,46.6,43.9,30.20,NW,315,2.0,3.0,90,0.00,,,0.00,meteohub,2013-02-03 11:48:00,
2013-02-03 06:53:00,46.6,43.5,30.20,NE,45,1.0,3.0,89,0.00,,,0.00,meteohub,2013-02-03 11:53:00,
2013-02-03 06:58:00,46.4,43.3,30.20,SW,225,1.0,3.0,89,0.00,,,0.00,meteohub,2013-02-03 11:58:00,
2013-02-03 07:03:00,46.4,43.0,30.21,South,180,2.0,3.0,88,0.00,,,0.00,meteohub,2013-02-03 12:03:00,
2013-02-03 07:09:00,46.6,43.5,30.21,East,90,2.0,3.0,89,0.00,,,0.00,meteohub,2013-02-03 12:09:00,
2013-02-03 07:14:00,46.6,43.2,30.21,NE,45,3.0,3.0,88,0.00,,,0.00,meteohub,2013-02-03 12:14:00,
2013-02-03 07:19:00,46.8,42.8,30.21,NW,315,3.0,4.0,86,0.00,,,0.00,meteohub,2013-02-03 12:19:00,
2013-02-03 07:24:00,46.9,42.4,30.22,SE,135,4.0,4.0,84,0.00,,,0.00,meteohub,2013-02-03 12:24:00,
2013-02-03 07:29:00,47.7,42.1,30.22,East,90,4.0,4.0,81,0.00,,,0.00,meteohub,2013-02-03 12:29:00,
2013-02-03 07:34:00,48.4,41.5,30.22,East,90,4.0,5.0,77,0.00,,,0.00,meteohub,2013-02-03 12:34:00,
2013-02-03 07:39:00,49.1,41.2,30.22,NE,45,4.0,5.0,74,0.00,,,0.00,meteohub,2013-02-03 12:39:00,
2013-02-03 07:44:00,49.8,40.8,30.23,SE,135,6.0,6.0,71,0.00,,,0.00,meteohub,2013-02-03 12:44:00,
2013-02-03 07:49:00,50.4,40.3,30.23,South,180,6.0,6.0,68,0.00,,,0.00,meteohub,2013-02-03 12:49:00,
2013-02-03 07:54:00,50.7,39.7,30.23,East,90,4.0,6.0,66,0.00,,,0.00,meteohub,2013-02-03 12:54:00,
2013-02-03 07:59:00,50.9,40.6,30.23,SE,135,5.0,7.0,68,0.00,,,0.00,meteohub,2013-02-03 12:59:00,
2013-02-03 08:05:00,51.6,41.4,30.23,East,90,6.0,8.0,68,0.00,,,0.00,meteohub,2013-02-03 13:05:00,
2013-02-03 08:10:00,52.2,41.9,30.23,SE,135,4.0,8.0,68,0.00,,,0.00,meteohub,2013-02-03 13:10:00,
2013-02-03 08:15:00,52.9,42.6,30.24,East,90,4.0,8.0,68,0.00,,,0.00,meteohub,2013-02-03 13:15:00,
2013-02-03 08:20:00,53.4,42.8,30.24,SE,135,8.0,10.0,67,0.00,,,0.00,meteohub,2013-02-03 13:20:00,
2013-02-03 08:25:00,54.0,43.3,30.24,East,90,5.0,10.0,67,0.00,,,0.00,meteohub,2013-02-03 13:25:00,
2013-02-03 08:30:00,54.5,43.3,30.24,NE,45,8.0,10.0,66,0.00,,,0.00,meteohub,2013-02-03 13:30:00,
2013-02-03 08:35:00,55.2,43.3,30.24,East,90,8.0,8.0,64,0.00,,,0.00,meteohub,2013-02-03 13:35:00,
2013-02-03 08:40:00,55.8,42.1,30.24,SE,135,11.0,11.0,60,0.00,,,0.00,meteohub,2013-02-03 13:40:00,
2013-02-03 08:46:00,55.9,41.4,30.24,South,180,5.0,11.0,58,0.00,,,0.00,meteohub,2013-02-03 13:46:00,
2013-02-03 08:51:00,56.1,40.6,30.24,SE,135,6.0,11.0,56,0.00,,,0.00,meteohub,2013-02-03 13:51:00,
2013-02-03 08:56:00,56.7,40.6,30.25,North,0,5.0,11.0,55,0.00,,,0.00,meteohub,2013-02-03 13:56:00,
2013-02-03 09:01:00,57.2,39.7,30.25,NE,45,6.0,9.0,52,0.00,,,0.00,meteohub,2013-02-03 14:01:00,
2013-02-03 09:06:00,57.9,39.9,30.26,South,180,8.0,10.0,51,0.00,,,0.00,meteohub,2013-02-03 14:06:00,
2013-02-03 09:11:00,58.5,39.9,30.26,SE,135,6.0,10.0,50,0.00,,,0.00,meteohub,2013-02-03 14:11:00,
2013-02-03 09:16:00,58.6,37.4,30.26,ESE,113,10.0,14.0,45,0.00,,,0.00,meteohub,2013-02-03 14:16:00,
2013-02-03 09:21:00,59.4,37.9,30.26,NE,45,3.0,14.0,45,0.00,,,0.00,meteohub,2013-02-03 14:21:00,
2013-02-03 09:27:00,59.9,37.4,30.26,East,90,3.0,14.0,43,0.00,,,0.00,meteohub,2013-02-03 14:27:00,
2013-02-03 09:32:00,60.3,35.2,30.26,East,90,9.0,10.0,39,0.00,,,0.00,meteohub,2013-02-03 14:32:00,
2013-02-03 09:37:00,60.6,34.2,30.26,North,0,13.0,13.0,37,0.00,,,0.00,meteohub,2013-02-03 14:37:00,
2013-02-03 09:42:00,61.0,34.5,30.26,North,0,4.0,13.0,37,0.00,,,0.00,meteohub,2013-02-03 14:42:00,
2013-02-03 09:47:00,61.3,34.2,30.26,South,180,7.0,13.0,36,0.00,,,0.00,meteohub,2013-02-03 14:47:00,
2013-02-03 09:52:00,62.1,32.5,30.26,East,90,5.0,13.0,33,0.00,,,0.00,meteohub,2013-02-03 14:52:00,
2013-02-03 09:57:00,62.8,33.3,30.26,SE,135,6.0,9.0,33,0.00,,,0.00,meteohub,2013-02-03 14:57:00,
2013-02-03 10:02:00,63.3,30.6,30.26,East,90,6.0,11.0,29,0.00,,,0.00,meteohub,2013-02-03 15:02:00,
2013-02-03 10:07:00,63.7,30.7,30.26,NE,45,4.0,11.0,29,0.00,,,0.00,meteohub,2013-02-03 15:07:00,
2013-02-03 10:12:00,64.2,29.5,30.26,SE,135,7.0,11.0,27,0.00,,,0.00,meteohub,2013-02-03 15:12:00,
2013-02-03 10:17:00,64.8,28.0,30.25,South,180,5.0,11.0,25,0.00,,,0.00,meteohub,2013-02-03 15:17:00,
2013-02-03 10:22:00,65.1,24.3,30.25,South,180,10.0,10.0,21,0.00,,,0.00,meteohub,2013-02-03 15:22:00,
2013-02-03 10:28:00,65.5,25.7,30.25,SE,135,6.0,10.0,22,0.00,,,0.00,meteohub,2013-02-03 15:28:00,
2013-02-03 10:33:00,66.0,23.7,30.25,South,180,8.0,11.0,20,0.00,,,0.00,meteohub,2013-02-03 15:33:00,
2013-02-03 10:38:00,66.2,21.4,30.25,SE,135,8.0,11.0,18,0.00,,,0.00,meteohub,2013-02-03 15:38:00,
2013-02-03 10:43:00,66.6,20.3,30.25,East,90,11.0,11.0,17,0.00,,,0.00,meteohub,2013-02-03 15:43:00,
2013-02-03 10:48:00,66.9,17.8,30.25,SE,135,11.0,11.0,15,0.00,,,0.00,meteohub,2013-02-03 15:48:00,
2013-02-03 10:53:00,66.9,17.8,30.25,East,90,11.0,17.0,15,0.00,,,0.00,meteohub,2013-02-03 15:53:00,
2013-02-03 10:58:00,67.3,16.5,30.25,SE,135,8.0,17.0,14,0.00,,,0.00,meteohub,2013-02-03 15:58:00,
2013-02-03 11:03:00,67.5,13.1,30.25,East,90,12.0,17.0,12,0.00,,,0.00,meteohub,2013-02-03 16:03:00,
2013-02-03 11:08:00,67.5,14.9,30.24,NE,45,10.0,15.0,13,0.00,,,0.00,meteohub,2013-02-03 16:08:00,
2013-02-03 11:13:00,67.8,15.1,30.24,SE,135,9.0,15.0,13,0.00,,,0.00,meteohub,2013-02-03 16:13:00,
2013-02-03 11:18:00,68.0,13.5,30.24,East,90,13.0,15.0,12,0.00,,,0.00,meteohub,2013-02-03 16:18:00,
2013-02-03 11:23:00,68.2,13.6,30.23,ESE,113,10.0,15.0,12,0.00,,,0.00,meteohub,2013-02-03 16:23:00,
2013-02-03 11:28:00,68.5,13.8,30.23,NE,45,8.0,15.0,12,0.00,,,0.00,meteohub,2013-02-03 16:28:00,
2013-02-03 11:34:00,68.5,13.8,30.23,East,90,8.0,15.0,12,0.00,,,0.00,meteohub,2013-02-03 16:34:00,
2013-02-03 11:39:00,69.3,14.5,30.22,SE,135,11.0,12.0,12,0.00,,,0.00,meteohub,2013-02-03 16:39:00,
2013-02-03 11:44:00,69.4,10.4,30.22,South,180,8.0,12.0,10,0.00,,,0.00,meteohub,2013-02-03 16:44:00,
2013-02-03 11:49:00,69.8,10.8,30.22,East,90,8.0,12.0,10,0.00,,,0.00,meteohub,2013-02-03 16:49:00,
2013-02-03 11:54:00,70.3,70.3,30.22,SE,135,7.0,11.0,0,0.00,,,0.00,meteohub,2013-02-03 16:54:00,
2013-02-03 11:59:00,70.5,11.3,30.22,East,90,7.0,11.0,10,0.00,,,0.00,meteohub,2013-02-03 16:59:00,
2013-02-03 12:04:00,70.5,11.3,30.21,SE,135,8.0,11.0,10,0.00,,,0.00,meteohub,2013-02-03 17:04:00,
2013-02-03 12:09:00,70.9,13.8,30.21,SE,135,8.0,11.0,11,0.00,,,0.00,meteohub,2013-02-03 17:09:00,
2013-02-03 12:14:00,71.1,71.1,30.21,South,180,11.0,11.0,0,0.00,,,0.00,meteohub,2013-02-03 17:14:00,
2013-02-03 12:19:00,71.4,71.4,30.20,SE,135,9.0,11.0,0,0.00,,,0.00,meteohub,2013-02-03 17:19:00,
2013-02-03 12:24:00,71.4,71.4,30.20,SE,135,14.0,14.0,0,0.00,,,0.00,meteohub,2013-02-03 17:24:00,
2013-02-03 12:29:00,71.4,71.4,30.20,South,180,10.0,15.0,0,0.00,,,0.00,meteohub,2013-02-03 17:29:00,
2013-02-03 12:35:00,71.4,71.4,30.19,SW,225,5.0,15.0,0,0.00,,,0.00,meteohub,2013-02-03 17:35:00,
2013-02-03 12:40:00,72.0,12.4,30.19,ESE,113,4.0,15.0,10,0.00,,,0.00,meteohub,2013-02-03 17:40:00,
2013-02-03 12:45:00,72.5,72.5,30.19,SE,135,9.0,11.0,0,0.00,,,0.00,meteohub,2013-02-03 17:45:00,
2013-02-03 12:50:00,72.1,72.1,30.18,East,90,2.0,9.0,0,0.00,,,0.00,meteohub,2013-02-03 17:50:00,
2013-02-03 12:55:00,72.1,72.1,30.19,East,90,6.0,9.0,0,0.00,,,0.00,meteohub,2013-02-03 17:55:00,
2013-02-03 13:00:00,72.1,72.1,30.18,SE,135,10.0,12.0,0,0.00,,,0.00,meteohub,2013-02-03 18:00:00,
2013-02-03 13:05:00,72.7,72.7,30.18,South,180,8.0,12.0,0,0.00,,,0.00,meteohub,2013-02-03 18:05:00,
2013-02-03 13:10:00,72.5,72.5,30.17,SE,135,5.0,11.0,0,0.00,,,0.00,meteohub,2013-02-03 18:10:00,
2013-02-03 13:15:00,72.7,72.7,30.17,East,90,6.0,11.0,0,0.00,,,0.00,meteohub,2013-02-03 18:15:00,
2013-02-03 13:21:00,73.2,73.2,30.16,SE,135,8.0,11.0,0,0.00,,,0.00,meteohub,2013-02-03 18:21:00,
2013-02-03 13:26:00,73.8,73.8,30.16,NE,45,4.0,9.0,0,0.00,,,0.00,meteohub,2013-02-03 18:26:00,
2013-02-03 13:31:00,73.4,73.4,30.15,South,180,10.0,10.0,0,0.00,,,0.00,meteohub,2013-02-03 18:31:00,
2013-02-03 13:36:00,72.9,72.9,30.15,SE,135,8.0,10.0,0,0.00,,,0.00,meteohub,2013-02-03 18:36:00,
2013-02-03 13:41:00,73.4,13.5,30.16,ESE,113,5.0,10.0,10,0.00,,,0.00,meteohub,2013-02-03 18:41:00,
2013-02-03 13:46:00,73.4,73.4,30.15,East,90,4.0,10.0,0,0.00,,,0.00,meteohub,2013-02-03 18:46:00,
2013-02-03 13:51:00,73.2,73.2,30.15,SE,135,7.0,9.0,0,0.00,,,0.00,meteohub,2013-02-03 18:51:00,
2013-02-03 13:56:00,73.8,73.8,30.15,NW,315,4.0,8.0,0,0.00,,,0.00,meteohub,2013-02-03 18:56:00,
2013-02-03 14:02:00,73.9,73.9,30.14,North,0,4.0,8.0,0,0.00,,,0.00,meteohub,2013-02-03 19:02:00,
2013-02-03 14:07:00,74.1,74.1,30.14,SE,135,14.0,14.0,0,0.00,,,0.00,meteohub,2013-02-03 19:07:00,
2013-02-03 14:12:00,74.5,74.5,30.14,SE,135,6.0,14.0,0,0.00,,,0.00,meteohub,2013-02-03 19:12:00,
2013-02-03 14:17:00,74.5,74.5,30.14,SSE,158,8.0,14.0,0,0.00,,,0.00,meteohub,2013-02-03 19:17:00,
2013-02-03 14:22:00,74.3,14.2,30.14,East,90,8.0,14.0,10,0.00,,,0.00,meteohub,2013-02-03 19:22:00,
2013-02-03 14:27:00,74.3,14.2,30.14,East,90,4.0,10.0,10,0.00,,,0.00,meteohub,2013-02-03 19:27:00,
2013-02-03 14:32:00,74.7,14.5,30.14,East,90,8.0,10.0,10,0.00,,,0.00,meteohub,2013-02-03 19:32:00,
2013-02-03 14:37:00,74.7,14.5,30.14,South,180,8.0,10.0,10,0.00,,,0.00,meteohub,2013-02-03 19:37:00,
2013-02-03 14:42:00,74.3,22.1,30.13,East,90,5.0,9.0,14,0.00,,,0.00,meteohub,2013-02-03 19:42:00,
2013-02-03 14:47:00,74.5,18.5,30.13,East,90,6.0,11.0,12,0.00,,,0.00,meteohub,2013-02-03 19:47:00,
2013-02-03 14:52:00,73.9,19.9,30.13,SE,135,12.0,12.0,13,0.00,,,0.00,meteohub,2013-02-03 19:52:00,
2013-02-03 14:57:00,73.9,23.4,30.14,NE,45,2.0,12.0,15,0.00,,,0.00,meteohub,2013-02-03 19:57:00,
2013-02-03 15:02:00,73.9,25.0,30.14,NE,45,8.0,12.0,16,0.00,,,0.00,meteohub,2013-02-03 20:02:00,
2013-02-03 15:07:00,73.8,24.8,30.14,North,0,8.0,12.0,16,0.00,,,0.00,meteohub,2013-02-03 20:07:00,
2013-02-03 15:12:00,73.8,26.2,30.13,South,180,4.0,11.0,17,0.00,,,0.00,meteohub,2013-02-03 20:12:00,
2013-02-03 15:17:00,74.3,26.6,30.14,NE,45,4.0,9.0,17,0.00,,,0.00,meteohub,2013-02-03 20:17:00,
2013-02-03 15:22:00,74.1,26.6,30.12,North,0,6.0,8.0,17,0.00,,,0.00,meteohub,2013-02-03 20:22:00,
2013-02-03 15:27:00,74.1,26.6,30.13,SE,135,8.0,13.0,17,0.00,,,0.00,meteohub,2013-02-03 20:27:00,
2013-02-03 15:32:00,73.9,26.4,30.13,East,90,5.0,13.0,17,0.00,,,0.00,meteohub,2013-02-03 20:32:00,
2013-02-03 15:37:00,73.9,29.1,30.13,ESE,113,8.0,11.0,19,0.00,,,0.00,meteohub,2013-02-03 20:37:00,
2013-02-03 15:42:00,73.9,29.1,30.13,East,90,4.0,12.0,19,0.00,,,0.00,meteohub,2013-02-03 20:42:00,
2013-02-03 15:47:00,73.6,28.8,30.13,East,90,7.0,12.0,19,0.00,,,0.00,meteohub,2013-02-03 20:47:00,
2013-02-03 15:52:00,73.6,28.8,30.13,NW,315,3.0,12.0,19,0.00,,,0.00,meteohub,2013-02-03 20:52:00,
2013-02-03 15:57:00,73.0,30.7,30.12,WNW,293,6.0,8.0,21,0.00,,,0.00,meteohub,2013-02-03 20:57:00,
2013-02-03 16:02:00,73.2,30.9,30.13,SE,135,8.0,11.0,21,0.00,,,0.00,meteohub,2013-02-03 21:02:00,
2013-02-03 16:07:00,73.4,32.2,30.13,East,90,4.0,11.0,22,0.00,,,0.00,meteohub,2013-02-03 21:07:00,
2013-02-03 16:12:00,73.9,33.8,30.13,East,90,8.0,10.0,23,0.00,,,0.00,meteohub,2013-02-03 21:12:00,
2013-02-03 16:17:00,74.1,34.0,30.13,SE,135,4.0,8.0,23,0.00,,,0.00,meteohub,2013-02-03 21:17:00,
2013-02-03 16:22:00,73.9,33.8,30.13,North,0,8.0,8.0,23,0.00,,,0.00,meteohub,2013-02-03 21:22:00,
2013-02-03 16:27:00,73.6,33.4,30.13,SE,135,6.0,8.0,23,0.00,,,0.00,meteohub,2013-02-03 21:27:00,
2013-02-03 16:32:00,73.2,34.3,30.13,East,90,8.0,8.0,24,0.00,,,0.00,meteohub,2013-02-03 21:32:00,
2013-02-03 16:37:00,72.9,36.0,30.13,SE,135,2.0,8.0,26,0.00,,,0.00,meteohub,2013-02-03 21:37:00,
2013-02-03 16:42:00,72.9,36.0,30.13,NW,315,4.0,8.0,26,0.00,,,0.00,meteohub,2013-02-03 21:42:00,
2013-02-03 16:47:00,72.9,35.1,30.13,NE,45,7.0,8.0,25,0.00,,,0.00,meteohub,2013-02-03 21:47:00,
2013-02-03 16:52:00,72.5,35.6,30.13,NE,45,7.0,7.0,26,0.00,,,0.00,meteohub,2013-02-03 21:52:00,
2013-02-03 16:57:00,72.3,35.6,30.13,East,90,3.0,7.0,26,0.00,,,0.00,meteohub,2013-02-03 21:57:00,
2013-02-03 17:02:00,72.7,37.8,30.14,NW,315,4.0,9.0,28,0.00,,,0.00,meteohub,2013-02-03 22:02:00,
2013-02-03 17:07:00,71.8,43.3,30.13,North,0,4.0,9.0,36,0.00,,,0.00,meteohub,2013-02-03 22:07:00,
2013-02-03 17:12:00,71.6,45.3,30.14,NE,45,3.0,9.0,39,0.00,,,0.00,meteohub,2013-02-03 22:12:00,
2013-02-03 17:17:00,71.1,45.5,30.14,NW,315,4.0,8.0,40,0.00,,,0.00,meteohub,2013-02-03 22:17:00,
2013-02-03 17:22:00,70.5,46.9,30.14,NE,45,3.0,6.0,43,0.00,,,0.00,meteohub,2013-02-03 22:22:00,
2013-02-03 17:27:00,70.0,47.1,30.14,NW,315,2.0,6.0,44,0.00,,,0.00,meteohub,2013-02-03 22:27:00,
2013-02-03 17:32:00,69.3,47.7,30.14,North,0,4.0,6.0,46,0.00,,,0.00,meteohub,2013-02-03 22:32:00,
2013-02-03 17:37:00,68.5,48.0,30.14,NE,45,2.0,8.0,48,0.00,,,0.00,meteohub,2013-02-03 22:37:00,
2013-02-03 17:42:00,68.2,48.4,30.13,SW,225,6.0,8.0,49,0.00,,,0.00,meteohub,2013-02-03 22:42:00,
2013-02-03 17:47:00,67.6,47.8,30.13,NE,45,4.0,8.0,49,0.00,,,0.00,meteohub,2013-02-03 22:47:00,
2013-02-03 17:52:00,67.6,47.8,30.14,NE,45,4.0,6.0,49,0.00,,,0.00,meteohub,2013-02-03 22:52:00,
2013-02-03 17:57:00,66.7,49.1,30.14,North,0,3.0,6.0,53,0.00,,,0.00,meteohub,2013-02-03 22:57:00,
2013-02-03 18:02:00,66.4,49.3,30.13,North,0,4.0,4.0,54,0.00,,,0.00,meteohub,2013-02-03 23:02:00,
2013-02-03 18:07:00,66.4,49.3,30.13,North,0,4.0,4.0,54,0.00,,,0.00,meteohub,2013-02-03 23:07:00,
2013-02-03 18:12:00,65.3,51.4,30.13,North,0,2.0,4.0,61,0.00,,,0.00,meteohub,2013-02-03 23:12:00,
2013-02-03 18:17:00,64.8,51.4,30.13,North,0,2.0,5.0,62,0.00,,,0.00,meteohub,2013-02-03 23:17:00,
2013-02-03 18:22:00,64.4,52.9,30.13,North,0,5.0,5.0,66,0.00,,,0.00,meteohub,2013-02-03 23:22:00,
2013-02-03 18:27:00,64.0,53.6,30.13,North,0,4.0,5.0,69,0.00,,,0.00,meteohub,2013-02-03 23:27:00,
2013-02-03 18:32:00,63.5,52.7,30.13,North,0,0.0,5.0,68,0.00,,,0.00,meteohub,2013-02-03 23:32:00,
2013-02-03 18:37:00,63.3,53.4,30.13,North,0,2.0,5.0,70,0.00,,,0.00,meteohub,2013-02-03 23:37:00,
2013-02-03 18:42:00,63.0,53.8,30.13,NE,45,2.0,4.0,72,0.00,,,0.00,meteohub,2013-02-03 23:42:00,
2013-02-03 18:47:00,62.6,54.1,30.13,NE,45,2.0,4.0,74,0.00,,,0.00,meteohub,2013-02-03 23:47:00,
2013-02-03 18:52:00,62.2,53.8,30.13,West,270,0.0,3.0,74,0.00,,,0.00,meteohub,2013-02-03 23:52:00,
2013-02-03 18:57:00,62.1,54.7,30.14,NW,315,2.0,2.0,77,0.00,,,0.00,meteohub,2013-02-03 23:57:00,
2013-02-03 19:02:00,61.9,54.7,30.14,NE,45,2.0,2.0,77,0.00,,,0.00,meteohub,2013-02-04 00:02:00,
2013-02-03 19:07:00,61.9,54.7,30.14,NE,45,2.0,2.0,77,0.00,,,0.00,meteohub,2013-02-04 00:07:00,
2013-02-03 19:12:00,61.3,55.0,30.14,NE,45,1.0,2.0,80,0.00,,,0.00,meteohub,2013-02-04 00:12:00,
2013-02-03 19:17:00,61.2,55.2,30.14,NW,315,1.0,2.0,81,0.00,,,0.00,meteohub,2013-02-04 00:17:00,
2013-02-03 19:22:00,61.0,56.1,30.14,North,0,2.0,3.0,84,0.00,,,0.00,meteohub,2013-02-04 00:22:00,
2013-02-03 19:27:00,60.8,55.9,30.14,West,270,3.0,3.0,84,0.00,,,0.00,meteohub,2013-02-04 00:27:00,
2013-02-03 19:32:00,60.6,55.8,30.14,SE,135,2.0,3.0,84,0.00,,,0.00,meteohub,2013-02-04 00:32:00,
2013-02-03 19:37:00,60.6,56.1,30.14,North,0,2.0,3.0,85,0.00,,,0.00,meteohub,2013-02-04 00:37:00,
2013-02-03 19:42:00,60.4,55.9,30.14,East,90,1.0,3.0,85,0.00,,,0.00,meteohub,2013-02-04 00:42:00,
2013-02-03 19:47:00,60.3,55.8,30.14,NE,45,2.0,2.0,85,0.00,,,0.00,meteohub,2013-02-04 00:47:00,
2013-02-03 19:52:00,60.1,55.6,30.14,NE,45,2.0,2.0,85,0.00,,,0.00,meteohub,2013-02-04 00:52:00,
2013-02-03 19:57:00,59.9,55.8,30.15,NE,45,0.0,2.0,86,0.00,,,0.00,meteohub,2013-02-04 00:57:00,
2013-02-03 20:02:00,59.7,55.2,30.16,NE,45,0.0,2.0,85,0.00,,,0.00,meteohub,2013-02-04 01:02:00,
2013-02-03 20:07:00,59.7,55.2,30.15,NE,45,0.0,2.0,85,0.00,,,0.00,meteohub,2013-02-04 01:07:00,
2013-02-03 20:12:00,59.0,54.5,30.16,NE,45,0.0,1.0,85,0.00,,,0.00,meteohub,2013-02-04 01:12:00,
2013-02-03 20:17:00,58.5,54.0,30.16,NE,45,0.0,0.0,85,0.00,,,0.00,meteohub,2013-02-04 01:17:00,
2013-02-03 20:22:00,58.1,54.0,30.16,NE,45,0.0,0.0,86,0.00,,,0.00,meteohub,2013-02-04 01:22:00,
2013-02-03 20:27:00,57.7,53.6,30.16,NE,45,0.0,0.0,86,0.00,,,0.00,meteohub,2013-02-04 01:27:00,
2013-02-03 20:32:00,57.4,53.6,30.15,NE,45,1.0,0.0,87,0.00,,,0.00,meteohub,2013-02-04 01:32:00,
2013-02-03 20:37:00,57.2,53.4,30.16,ESE,113,0.0,1.0,87,0.00,,,0.00,meteohub,2013-02-04 01:37:00,
2013-02-03 20:42:00,57.0,53.8,30.16,SE,135,2.0,2.0,89,0.00,,,0.00,meteohub,2013-02-04 01:42:00,
2013-02-03 20:47:00,57.0,54.1,30.16,West,270,1.0,2.0,90,0.00,,,0.00,meteohub,2013-02-04 01:47:00,
2013-02-03 20:52:00,57.2,54.7,30.16,NE,45,2.0,2.0,91,0.00,,,0.00,meteohub,2013-02-04 01:52:00,
2013-02-03 20:57:00,57.2,54.7,30.17,North,0,0.0,2.0,91,0.00,,,0.00,meteohub,2013-02-04 01:57:00,
2013-02-03 21:02:00,57.2,54.7,30.17,East,90,2.0,2.0,91,0.00,,,0.00,meteohub,2013-02-04 02:02:00,
2013-02-03 21:07:00,57.2,54.7,30.16,East,90,2.0,2.0,91,0.00,,,0.00,meteohub,2013-02-04 02:07:00,
2013-02-03 21:12:00,57.0,54.7,30.17,NE,45,0.0,2.0,92,0.00,,,0.00,meteohub,2013-02-04 02:12:00,
2013-02-03 21:17:00,56.8,54.5,30.17,NE,45,0.0,2.0,92,0.00,,,0.00,meteohub,2013-02-04 02:17:00,
2013-02-03 21:22:00,56.7,54.3,30.17,NE,45,0.0,2.0,92,0.00,,,0.00,meteohub,2013-02-04 02:22:00,
2013-02-03 21:27:00,56.5,54.1,30.17,SE,135,0.0,0.0,92,0.00,,,0.00,meteohub,2013-02-04 02:27:00,
2013-02-03 21:32:00,56.3,54.3,30.17,SE,135,0.0,0.0,93,0.00,,,0.00,meteohub,2013-02-04 02:32:00,
2013-02-03 21:37:00,56.1,54.1,30.17,South,180,0.0,0.0,93,0.00,,,0.00,meteohub,2013-02-04 02:37:00,
2013-02-03 21:42:00,55.9,54.0,30.17,South,180,0.0,0.0,93,0.00,,,0.00,meteohub,2013-02-04 02:42:00,
2013-02-03 21:47:00,55.8,53.8,30.17,South,180,0.0,0.0,93,0.00,,,0.00,meteohub,2013-02-04 02:47:00,
2013-02-03 21:52:00,55.4,53.4,30.17,South,180,0.0,0.0,93,0.00,,,0.00,meteohub,2013-02-04 02:52:00,
2013-02-03 21:57:00,55.2,53.6,30.17,North,0,0.0,0.0,94,0.00,,,0.00,meteohub,2013-02-04 02:57:00,
2013-02-03 22:02:00,55.2,53.6,30.17,North,0,0.0,0.0,94,0.00,,,0.00,meteohub,2013-02-04 03:02:00,
2013-02-03 22:07:00,55.2,53.6,30.17,North,0,0.0,0.0,94,0.00,,,0.00,meteohub,2013-02-04 03:07:00,
2013-02-03 22:12:00,54.9,53.4,30.18,NE,45,0.0,0.0,95,0.00,,,0.00,meteohub,2013-02-04 03:12:00,
2013-02-03 22:17:00,54.9,54.0,30.18,NE,45,0.0,0.0,97,0.00,,,0.00,meteohub,2013-02-04 03:17:00,
2013-02-03 22:22:00,55.0,54.1,30.18,NE,45,0.0,0.0,97,0.00,,,0.00,meteohub,2013-02-04 03:22:00,
2013-02-03 22:27:00,55.0,54.5,30.18,NW,315,0.0,0.0,98,0.00,,,0.00,meteohub,2013-02-04 03:27:00,
2013-02-03 22:32:00,54.9,54.3,30.18,NW,315,0.0,0.0,98,0.00,,,0.00,meteohub,2013-02-04 03:32:00,
2013-02-03 22:37:00,54.5,54.0,30.18,NW,315,0.0,0.0,98,0.00,,,0.00,meteohub,2013-02-04 03:37:00,
2013-02-03 22:42:00,54.3,53.8,30.18,NW,315,0.0,0.0,98,0.00,,,0.00,meteohub,2013-02-04 03:42:00,
2013-02-03 22:47:00,54.0,53.4,30.18,NW,315,0.0,0.0,98,0.00,,,0.00,meteohub,2013-02-04 03:47:00,
2013-02-03 22:52:00,53.8,53.2,30.18,NW,315,0.0,0.0,98,0.00,,,0.00,meteohub,2013-02-04 03:52:00,
2013-02-03 22:57:00,53.4,53.1,30.18,NW,315,0.0,0.0,99,0.00,,,0.00,meteohub,2013-02-04 03:57:00,
2013-02-03 23:02:00,53.4,53.1,30.18,NW,315,0.0,0.0,99,0.00,,,0.00,meteohub,2013-02-04 04:02:00,
2013-02-03 23:07:00,53.2,52.9,30.18,NW,315,0.0,0.0,99,0.00,,,0.00,meteohub,2013-02-04 04:07:00,
2013-02-03 23:12:00,53.1,52.7,30.18,NW,315,0.0,0.0,99,0.00,,,0.00,meteohub,2013-02-04 04:12:00,
2013-02-03 23:17:00,52.9,52.5,30.18,NW,315,0.0,0.0,99,0.00,,,0.00,meteohub,2013-02-04 04:17:00,
2013-02-03 23:22:00,52.7,52.3,30.17,NW,315,0.0,0.0,99,0.00,,,0.00,meteohub,2013-02-04 04:22:00,
2013-02-03 23:27:00,52.3,52.0,30.17,NW,315,0.0,0.0,99,0.00,,,0.00,meteohub,2013-02-04 04:27:00,
2013-02-03 23:32:00,52.0,51.6,30.17,NW,315,0.0,0.0,99,0.00,,,0.00,meteohub,2013-02-04 04:32:00,
2013-02-03 23:37:00,51.6,51.3,30.17,NW,315,0.0,0.0,99,0.00,,,0.00,meteohub,2013-02-04 04:37:00,
2013-02-03 23:42:00,51.3,50.9,30.17,West,270,0.0,0.0,99,0.00,,,0.00,meteohub,2013-02-04 04:42:00,
2013-02-03 23:47:00,50.9,50.5,30.17,West,270,0.0,0.0,99,0.00,,,0.00,meteohub,2013-02-04 04:47:00,
2013-02-03 23:52:00,50.4,50.0,30.17,West,270,0.0,0.0,99,0.00,,,0.00,meteohub,2013-02-04 04:52:00,
2013-02-03 23:57:00,50.5,50.2,30.16,West,270,0.0,0.0,99,0.00,,,0.00,meteohub,2013-02-04 04:57:00,